Location: Unspecified
(0.0000°N, 0.0000°E)
Time: 06:27:55
(UTC+00:00)

Altair - All Passes

Search period start: 26 October 2020 00:00
Search period end: 05 November 2020 00:00
Orbit: 1502 x 1682 km, 47.2° (Epoch: 25 October)

Date Brightness Start Highest point End Pass type
(mag) Time Alt. Az. Time Alt. Az. Time Alt. Az.
26 Oct - 00:25:14 10° SSE 00:29:44 14° SE 00:34:12 10° ESE night (unlit)
26 Oct - 02:25:25 10° SW 02:34:37 82° SE 02:43:51 10° NE visible
26 Oct - 04:33:21 10° W 04:39:20 19° NW 04:45:23 10° N visible
26 Oct - 13:10:38 10° NNW 13:19:39 37° NE 13:28:40 10° ESE daylight
26 Oct - 15:14:39 10° WNW 15:24:21 51° SW 15:34:03 10° SSE daylight
27 Oct - 00:01:09 10° SSE 00:04:28 12° SE 00:07:45 10° ESE night (unlit)
27 Oct - 02:00:18 10° SSW 02:09:30 73° SE 02:18:39 10° NE visible
27 Oct - 04:07:33 10° W 04:14:06 22° NW 04:20:45 10° N visible
27 Oct - 12:45:45 10° N 12:54:25 33° NE 13:03:07 10° ESE daylight
27 Oct - 14:49:17 10° NW 14:59:08 57° SW 15:09:00 10° SSE daylight
27 Oct - 23:38:11 10° SE 23:39:10 10° SE 23:40:09 10° SE night (unlit)
28 Oct - 01:35:13 10° SSW 01:44:21 65° SE 01:53:25 10° NE visible
28 Oct - 03:41:51 10° W 03:48:54 25° NW 03:56:01 10° N visible
28 Oct - 12:20:53 10° N 12:29:10 29° NE 12:37:29 10° ESE daylight
28 Oct - 14:23:57 10° NW 14:33:56 64° SW 14:43:56 10° SSE daylight
28 Oct - 16:36:51 10° WSW 16:39:22 11° SW 16:41:54 10° SSW daylight
29 Oct - 01:10:10 10° SSW 01:19:13 58° SE 01:28:09 10° NE night (unlit)
29 Oct - 03:16:14 10° WSW 03:23:42 28° NW 03:31:14 10° N visible
29 Oct - 11:56:05 10° N 12:03:55 26° NE 12:11:48 10° E daylight
29 Oct - 13:58:41 10° NW 14:08:44 71° SW 14:18:50 10° SSE daylight
29 Oct - 16:09:50 10° WSW 16:14:02 13° SW 16:18:15 10° SSW daylight
30 Oct - 00:45:09 10° SSW 00:54:04 52° SE 01:02:51 10° NE night (unlit)
30 Oct - 02:50:41 10° WSW 02:58:31 32° NW 03:06:25 10° N visible
30 Oct - 11:31:21 10° N 11:38:40 23° NE 11:46:02 10° E daylight
30 Oct - 13:33:26 10° NW 13:43:31 78° SW 13:53:42 10° SE daylight
30 Oct - 15:43:23 10° WSW 15:48:42 15° SW 15:54:03 10° SSW daylight
31 Oct - 00:20:09 10° SSW 00:28:54 46° SE 00:37:30 10° ENE night (unlit)
31 Oct - 02:25:11 10° WSW 02:33:20 36° NW 02:41:32 10° NNE visible
31 Oct - 11:06:42 10° N 11:13:24 20° NE 11:20:08 10° E daylight
31 Oct - 13:08:13 10° NW 13:18:19 86° SW 13:28:31 10° SE daylight
31 Oct - 15:17:13 10° W 15:23:24 18° SW 15:29:36 10° S daylight
31 Oct - 23:55:11 10° SSW 00:03:45 41° SE 00:12:08 10° ENE night (unlit)
01 Nov - 01:59:45 10° WSW 02:08:11 41° NW 02:16:37 10° NNE night (unlit)
01 Nov - 10:42:09 10° N 10:48:07 17° NE 10:54:06 10° E daylight
01 Nov - 12:43:02 10° NW 12:53:07 86° NE 13:03:19 10° SE daylight
01 Nov - 14:51:14 10° W 14:58:06 20° SW 15:05:01 10° S daylight
01 Nov - 23:30:15 10° SSW 23:38:34 36° SE 23:46:42 10° ENE night (unlit)
02 Nov - 01:34:21 10° WSW 01:43:01 46° NW 01:51:40 10° NNE night (unlit)
02 Nov - 10:17:46 10° NNE 10:22:49 15° NE 10:27:53 10° ENE daylight
02 Nov - 12:17:53 10° NW 12:27:55 78° NE 12:38:05 10° SE daylight
02 Nov - 14:25:23 10° W 14:32:50 23° SW 14:40:20 10° S daylight
02 Nov - 23:05:21 10° S 23:13:23 32° SE 23:21:14 10° ENE visible
03 Nov - 01:08:59 10° SW 01:17:52 52° NW 01:26:41 10° NNE night (unlit)
03 Nov - 09:53:40 10° NNE 09:57:30 13° NE 10:01:20 10° ENE daylight
03 Nov - 11:52:46 10° NNW 12:02:42 70° NE 12:12:49 10° SE daylight
03 Nov - 13:59:38 10° W 14:07:34 26° SW 14:15:34 10° S daylight
03 Nov - 22:40:30 10° S 22:48:11 28° SE 22:55:41 10° ENE visible
04 Nov - 00:43:41 10° SW 00:52:44 58° NW 01:01:40 10° NNE night (unlit)
04 Nov - 09:30:24 10° NNE 09:32:10 11° NE 09:33:56 10° NE daylight
04 Nov - 11:27:41 10° NNW 11:37:30 63° NE 11:47:31 10° SE daylight
04 Nov - 13:33:58 10° WNW 13:42:18 29° SW 13:50:44 10° S daylight
04 Nov - 22:15:42 10° S 22:22:58 25° SE 22:30:05 10° E visible
